When you browse on this site, cookies collect data to enhance your experience and personalize the content and advertising you see.
Visit our Privacy Policy to learn more. By continuing to use the site, you agree to this use of cookies and data.
  • en France
  • Liste des pays
  • À 7 jours
  • Température de l'eau
  • Carte météo
  • Widgets météo
  • user-avatar
    Se connecter

    Météo par heure à Cachungo

    Ce jour, 26 Mai, Mardi

    Heure Température Précipitation Vent Pression Humidité
    00:00 +24°C° 0 mm 3 m/s 757 mmHg 85%
    01:00 +22°C° 0 mm 3 m/s 757 mmHg 87%
    02:00 +22°C° 0 mm 3 m/s 756 mmHg 90%
    03:00 +21°C° 0 mm 3 m/s 756 mmHg 91%
    04:00 +21°C° 0 mm 3 m/s 757 mmHg 92%
    05:00 +21°C° 0 mm 3 m/s 757 mmHg 93%
    06:00 +24°C° 0 mm 3 m/s 757 mmHg 80%
    07:00 +26°C° 0 mm 2 m/s 757 mmHg 67%
    08:00 +29°C° 0 mm 2 m/s 758 mmHg 55%
    09:00 +32°C° 0 mm 2 m/s 758 mmHg 43%
    10:00 +37°C° 0 mm 2 m/s 758 mmHg 31%
    11:00 +41°C° 0 mm 2 m/s 758 mmHg 19%
    12:00 +40°C° 0 mm 3 m/s 757 mmHg 24%
    13:00 +40°C° 0 mm 4 m/s 756 mmHg 29%
    14:00 +39°C° 0 mm 5 m/s 755 mmHg 34%
    15:00 +36°C° 0 mm 5 m/s 755 mmHg 42%
    16:00 +34°C° 0 mm 5 m/s 755 mmHg 50%
    17:00 +30°C° 0 mm 5 m/s 755 mmHg 59%
    18:00 +29°C° 0 mm 5 m/s 755 mmHg 67%
    19:00 +27°C° 0 mm 4 m/s 756 mmHg 75%
    20:00 +25°C° 0 mm 4 m/s 757 mmHg 84%
    21:00 +25°C° 0 mm 3 m/s 757 mmHg 86%
    22:00 +24°C° 0 mm 3 m/s 757 mmHg 88%
    23:00 +24°C° 0 mm 3 m/s 758 mmHg 91%

    Demain, 27 Mai, Mercredi

    Heure Température Précipitation Vent Pression Humidité
    00:00 +24°C° 0 mm 3 m/s 757 mmHg 92%
    01:00 +24°C° 0 mm 2 m/s 757 mmHg 93%
    02:00 +23°C° 0 mm 2 m/s 757 mmHg 94%
    03:00 +23°C° 0 mm 2 m/s 757 mmHg 94%
    04:00 +23°C° 0 mm 2 m/s 757 mmHg 93%
    05:00 +23°C° 0 mm 1 m/s 757 mmHg 93%
    06:00 +25°C° 0 mm 2 m/s 757 mmHg 82%
    07:00 +27°C° 0 mm 2 m/s 757 mmHg 72%
    08:00 +29°C° 0 mm 2 m/s 758 mmHg 61%
    09:00 +31°C° 0 mm 2 m/s 757 mmHg 54%
    10:00 +34°C° 0 mm 3 m/s 757 mmHg 46%
    11:00 +36°C° 0 mm 3 m/s 757 mmHg 39%
    12:00 +37°C° 0 mm 3 m/s 757 mmHg 37%
    13:00 +37°C° 0 mm 4 m/s 756 mmHg 36%
    14:00 +39°C° 0 mm 5 m/s 756 mmHg 34%
    15:00 +36°C° 0 mm 5 m/s 755 mmHg 39%
    16:00 +35°C° 0 mm 5 m/s 755 mmHg 44%
    17:00 +33°C° 0 mm 5 m/s 755 mmHg 49%
    18:00 +30°C° 0 mm 4 m/s 756 mmHg 59%
    19:00 +28°C° 0 mm 4 m/s 756 mmHg 70%
    20:00 +26°C° 0 mm 3 m/s 757 mmHg 80%
    21:00 +26°C° 0 mm 3 m/s 757 mmHg 83%
    22:00 +25°C° 0 mm 2 m/s 757 mmHg 86%
    23:00 +25°C° 0 mm 2 m/s 757 mmHg 90%

    Après-demain, 28 Mai, Jeudi

    Heure Température Précipitation Vent Pression Humidité
    00:00 +25°C° 0 mm 2 m/s 757 mmHg 91%
    01:00 +24°C° 0 mm 2 m/s 757 mmHg 91%
    02:00 +24°C° 0 mm 2 m/s 756 mmHg 92%
    03:00 +24°C° 0 mm 2 m/s 756 mmHg 92%
    04:00 +24°C° 0 mm 2 m/s 756 mmHg 92%
    05:00 +24°C° 0 mm 2 m/s 756 mmHg 93%
    06:00 +25°C° 0 mm 2 m/s 757 mmHg 86%
    07:00 +27°C° 0 mm 2 m/s 757 mmHg 80%
    08:00 +28°C° 0 mm 2 m/s 758 mmHg 74%
    09:00 +29°C° 0 mm 2 m/s 758 mmHg 69%
    10:00 +30°C° 0 mm 2 m/s 758 mmHg 65%
    11:00 +30°C° 0 mm 1 m/s 758 mmHg 60%
    12:00 +32°C° 0 mm 2 m/s 757 mmHg 55%
    13:00 +35°C° 0 mm 3 m/s 757 mmHg 50%
    14:00 +36°C° 0 mm 3 m/s 756 mmHg 45%
    15:00 +35°C° 0 mm 4 m/s 756 mmHg 49%
    16:00 +34°C° 0 mm 4 m/s 755 mmHg 52%
    17:00 +33°C° 0 mm 4 m/s 755 mmHg 55%
    18:00 +30°C° 0 mm 4 m/s 756 mmHg 65%
    19:00 +28°C° 0 mm 4 m/s 756 mmHg 75%
    20:00 +26°C° 0 mm 3 m/s 756 mmHg 84%
    21:00 +26°C° 0 mm 3 m/s 757 mmHg 86%
    22:00 +26°C° 0 mm 2 m/s 757 mmHg 87%
    23:00 +26°C° 0 mm 2 m/s 758 mmHg 89%

    29 Mai, Vendredi

    Heure Température Précipitation Vent Pression Humidité
    00:00 +25°C° 0 mm 2 m/s 757 mmHg 90%
    01:00 +25°C° 0 mm 2 m/s 757 mmHg 91%
    02:00 +25°C° 0 mm 2 m/s 756 mmHg 92%
    03:00 +25°C° 0 mm 2 m/s 756 mmHg 92%
    04:00 +25°C° 0 mm 2 m/s 756 mmHg 92%
    05:00 +25°C° 0 mm 2 m/s 756 mmHg 93%
    06:00 +27°C° 0 mm 2 m/s 757 mmHg 82%
    07:00 +29°C° 0 mm 2 m/s 757 mmHg 71%
    08:00 +31°C° 0 mm 2 m/s 757 mmHg 60%
    09:00 +35°C° 0 mm 2 m/s 757 mmHg 51%
    10:00 +38°C° 0 mm 2 m/s 757 mmHg 41%
    11:00 +41°C° 0 mm 2 m/s 757 mmHg 32%
    12:00 +42°C° 0 mm 3 m/s 756 mmHg 33%
    13:00 +41°C° 0 mm 4 m/s 755 mmHg 34%
    14:00 +41°C° 0 mm 5 m/s 754 mmHg 35%
    15:00 +39°C° 0.4 mm 5 m/s 754 mmHg 40%
    16:00 +36°C° 0.4 mm 5 m/s 754 mmHg 46%
    17:00 +34°C° 0.4 mm 5 m/s 754 mmHg 51%
    18:00 +32°C° 0 mm 5 m/s 754 mmHg 56%
    19:00 +30°C° 0 mm 4 m/s 755 mmHg 61%
    20:00 +28°C° 0 mm 4 m/s 755 mmHg 66%
    21:00 +28°C° 0.2 mm 3 m/s 755 mmHg 68%
    22:00 +27°C° 0.2 mm 3 m/s 756 mmHg 71%
    23:00 +26°C° 0.2 mm 3 m/s 756 mmHg 74%

    30 Mai, Samedi

    Heure Température Précipitation Vent Pression Humidité
    00:00 +26°C° 0.3 mm 2 m/s 755 mmHg 75%
    01:00 +26°C° 0.3 mm 2 m/s 755 mmHg 76%
    02:00 +26°C° 0.3 mm 1 m/s 755 mmHg 78%
    03:00 +25°C° 1.1 mm 1 m/s 755 mmHg 79%
    04:00 +25°C° 1.1 mm 1 m/s 755 mmHg 81%
    05:00 +25°C° 1.1 mm 1 m/s 756 mmHg 83%
    06:00 +26°C° 0.9 mm 1 m/s 756 mmHg 80%
    07:00 +26°C° 0.9 mm 2 m/s 756 mmHg 77%
    08:00 +27°C° 0.9 mm 2 m/s 756 mmHg 74%
    09:00 +29°C° 0.1 mm 2 m/s 756 mmHg 64%
    10:00 +32°C° 0.1 mm 2 m/s 756 mmHg 54%
    11:00 +35°C° 0.1 mm 2 m/s 756 mmHg 45%
    12:00 +37°C° 0 mm 2 m/s 756 mmHg 41%
    13:00 +38°C° 0 mm 3 m/s 755 mmHg 36%
    14:00 +40°C° 0 mm 3 m/s 755 mmHg 32%
    15:00 +38°C° 0 mm 4 m/s 754 mmHg 39%
    16:00 +36°C° 0 mm 5 m/s 754 mmHg 46%
    17:00 +33°C° 0 mm 5 m/s 754 mmHg 53%
    18:00 +32°C° 0 mm 5 m/s 755 mmHg 57%
    19:00 +30°C° 0 mm 4 m/s 755 mmHg 61%
    20:00 +28°C° 0 mm 3 m/s 756 mmHg 65%
    21:00 +28°C° 0 mm 3 m/s 756 mmHg 67%
    22:00 +28°C° 0 mm 3 m/s 756 mmHg 69%
    23:00 +28°C° 0 mm 2 m/s 757 mmHg 71%

    31 Mai, Dimanche

    Heure Température Précipitation Vent Pression Humidité
    00:00 +28°C° 0 mm 3 m/s 756 mmHg 73%
    01:00 +27°C° 0 mm 3 m/s 756 mmHg 76%
    02:00 +27°C° 0 mm 3 m/s 755 mmHg 78%
    03:00 +27°C° 0 mm 3 m/s 755 mmHg 79%
    04:00 +27°C° 0 mm 2 m/s 756 mmHg 80%
    05:00 +26°C° 0 mm 1 m/s 756 mmHg 80%
    06:00 +27°C° 0 mm 1 m/s 757 mmHg 76%
    07:00 +28°C° 0 mm 1 m/s 758 mmHg 71%
    08:00 +29°C° 0 mm 2 m/s 758 mmHg 66%
    09:00 +30°C° 0 mm 2 m/s 758 mmHg 61%
    10:00 +32°C° 0 mm 1 m/s 758 mmHg 55%
    11:00 +33°C° 0 mm 1 m/s 759 mmHg 50%
    12:00 +36°C° 0 mm 2 m/s 758 mmHg 45%
    13:00 +37°C° 0 mm 3 m/s 757 mmHg 41%
    14:00 +38°C° 0 mm 3 m/s 756 mmHg 36%
    15:00 +37°C° 0 mm 4 m/s 756 mmHg 42%
    16:00 +35°C° 0 mm 4 m/s 755 mmHg 47%
    17:00 +33°C° 0 mm 5 m/s 755 mmHg 53%
    18:00 +32°C° 0 mm 4 m/s 756 mmHg 55%
    19:00 +30°C° 0 mm 4 m/s 756 mmHg 57%
    20:00 +29°C° 0 mm 3 m/s 757 mmHg 60%
    21:00 +29°C° 0 mm 3 m/s 757 mmHg 61%
    22:00 +29°C° 0 mm 3 m/s 758 mmHg 62%
    23:00 +28°C° 0 mm 2 m/s 758 mmHg 63%
    Voir plus